When you browse on this site, cookies collect data to enhance your experience and personalize the content and advertising you see.
Visit our Privacy Policy to learn more. By continuing to use the site, you agree to this use of cookies and data.
  • In France
  • List of Countries
  • For 7 days
  • Water Temperature
  • Weather Map
  • Weather Widgets
  • user-avatar
    Login

    Hourly Weather Soma Bey

    Today, 21 November, Thursday

    Time Temperature Precipitation Wind Pressure Humidity
    00:00 +17°C° 0 mm 3 mps 750 mmHg 60%
    01:00 +17°C° 0 mm 3 mps 750 mmHg 58%
    02:00 +17°C° 0 mm 4 mps 750 mmHg 56%
    03:00 +18°C° 0 mm 4 mps 750 mmHg 58%
    04:00 +18°C° 0 mm 4 mps 750 mmHg 61%
    05:00 +18°C° 0 mm 4 mps 750 mmHg 63%
    06:00 +19°C° 0 mm 4 mps 751 mmHg 57%
    07:00 +21°C° 0 mm 4 mps 751 mmHg 52%
    08:00 +22°C° 0 mm 5 mps 751 mmHg 47%
    09:00 +23°C° 0 mm 5 mps 751 mmHg 44%
    10:00 +25°C° 0 mm 5 mps 751 mmHg 41%
    11:00 +27°C° 0 mm 6 mps 751 mmHg 38%
    12:00 +27°C° 0 mm 5 mps 750 mmHg 38%
    13:00 +27°C° 0 mm 5 mps 749 mmHg 38%
    14:00 +27°C° 0 mm 4 mps 749 mmHg 38%
    15:00 +25°C° 0 mm 4 mps 749 mmHg 43%
    16:00 +24°C° 0 mm 3 mps 749 mmHg 49%
    17:00 +21°C° 0 mm 2 mps 749 mmHg 54%
    18:00 +20°C° 0 mm 2 mps 749 mmHg 58%
    19:00 +20°C° 0 mm 1 mps 749 mmHg 63%
    20:00 +19°C° 0 mm 1 mps 749 mmHg 67%
    21:00 +19°C° 0 mm 1 mps 750 mmHg 69%
    22:00 +19°C° 0 mm 1 mps 750 mmHg 70%
    23:00 +18°C° 0 mm 1 mps 750 mmHg 71%

    Tomorrow, 22 November, Friday

    Time Temperature Precipitation Wind Pressure Humidity
    00:00 +18°C° 0 mm 1 mps 750 mmHg 70%
    01:00 +18°C° 0 mm 1 mps 749 mmHg 69%
    02:00 +18°C° 0 mm 1 mps 749 mmHg 68%
    03:00 +18°C° 0 mm 1 mps 749 mmHg 68%
    04:00 +16°C° 0 mm 1 mps 749 mmHg 69%
    05:00 +16°C° 0 mm 1 mps 749 mmHg 69%
    06:00 +19°C° 0 mm 1 mps 750 mmHg 60%
    07:00 +21°C° 0 mm 1 mps 750 mmHg 50%
    08:00 +24°C° 0 mm 1 mps 750 mmHg 41%
    09:00 +25°C° 0 mm 1 mps 750 mmHg 37%
    10:00 +27°C° 0 mm 1 mps 750 mmHg 33%
    11:00 +28°C° 0 mm 1 mps 750 mmHg 29%
    12:00 +28°C° 0 mm 2 mps 749 mmHg 30%
    13:00 +29°C° 0 mm 3 mps 749 mmHg 31%
    14:00 +29°C° 0 mm 4 mps 748 mmHg 32%
    15:00 +27°C° 0 mm 3 mps 748 mmHg 39%
    16:00 +25°C° 0 mm 2 mps 748 mmHg 47%
    17:00 +23°C° 0 mm 1 mps 748 mmHg 55%
    18:00 +22°C° 0 mm 1 mps 749 mmHg 59%
    19:00 +21°C° 0 mm 1 mps 749 mmHg 64%
    20:00 +20°C° 0 mm 1 mps 749 mmHg 68%
    21:00 +19°C° 0 mm 2 mps 749 mmHg 67%
    22:00 +18°C° 0 mm 3 mps 749 mmHg 66%
    23:00 +18°C° 0 mm 4 mps 750 mmHg 65%

    Day after tomorrow, 23 November, Saturday

    Time Temperature Precipitation Wind Pressure Humidity
    00:00 +18°C° 0 mm 4 mps 749 mmHg 66%
    01:00 +17°C° 0 mm 4 mps 749 mmHg 66%
    02:00 +17°C° 0 mm 4 mps 749 mmHg 66%
    03:00 +15°C° 0 mm 4 mps 749 mmHg 62%
    04:00 +15°C° 0 mm 4 mps 749 mmHg 58%
    05:00 +14°C° 0 mm 4 mps 749 mmHg 54%
    06:00 +18°C° 0 mm 4 mps 749 mmHg 46%
    07:00 +20°C° 0 mm 4 mps 750 mmHg 37%
    08:00 +22°C° 0 mm 4 mps 750 mmHg 29%
    09:00 +25°C° 0 mm 4 mps 750 mmHg 25%
    10:00 +26°C° 0 mm 4 mps 750 mmHg 21%
    11:00 +28°C° 0 mm 5 mps 750 mmHg 18%
    12:00 +28°C° 0 mm 5 mps 749 mmHg 21%
    13:00 +28°C° 0 mm 6 mps 749 mmHg 24%
    14:00 +28°C° 0 mm 7 mps 748 mmHg 27%
    15:00 +27°C° 0 mm 6 mps 748 mmHg 32%
    16:00 +24°C° 0 mm 6 mps 748 mmHg 37%
    17:00 +22°C° 0 mm 6 mps 748 mmHg 42%
    18:00 +21°C° 0 mm 5 mps 748 mmHg 43%
    19:00 +20°C° 0 mm 5 mps 749 mmHg 43%
    20:00 +19°C° 0 mm 5 mps 749 mmHg 44%
    21:00 +18°C° 0 mm 4 mps 749 mmHg 45%
    22:00 +17°C° 0 mm 4 mps 749 mmHg 46%
    23:00 +17°C° 0 mm 4 mps 749 mmHg 47%

    24 November, Sunday

    Time Temperature Precipitation Wind Pressure Humidity
    00:00 +15°C° 0 mm 4 mps 749 mmHg 48%
    01:00 +15°C° 0 mm 4 mps 749 mmHg 48%
    02:00 +14°C° 0 mm 4 mps 749 mmHg 49%
    03:00 +14°C° 0 mm 4 mps 749 mmHg 48%
    04:00 +14°C° 0 mm 3 mps 749 mmHg 47%
    05:00 +13°C° 0 mm 3 mps 749 mmHg 46%
    06:00 +17°C° 0 mm 3 mps 749 mmHg 39%
    07:00 +19°C° 0 mm 3 mps 750 mmHg 33%
    08:00 +22°C° 0 mm 3 mps 750 mmHg 26%
    09:00 +24°C° 0 mm 3 mps 750 mmHg 23%
    10:00 +26°C° 0 mm 3 mps 750 mmHg 20%
    11:00 +28°C° 0 mm 3 mps 750 mmHg 17%
    12:00 +28°C° 0 mm 4 mps 749 mmHg 20%
    13:00 +28°C° 0 mm 4 mps 749 mmHg 22%
    14:00 +28°C° 0 mm 5 mps 748 mmHg 25%
    15:00 +26°C° 0 mm 4 mps 748 mmHg 35%
    16:00 +23°C° 0 mm 4 mps 748 mmHg 44%
    17:00 +21°C° 0 mm 3 mps 748 mmHg 54%
    18:00 +20°C° 0 mm 3 mps 748 mmHg 59%
    19:00 +19°C° 0 mm 3 mps 749 mmHg 64%
    20:00 +18°C° 0 mm 3 mps 749 mmHg 69%
    21:00 +18°C° 0 mm 3 mps 749 mmHg 69%
    22:00 +17°C° 0 mm 3 mps 749 mmHg 68%
    23:00 +17°C° 0 mm 3 mps 749 mmHg 68%

    25 November, Monday

    Time Temperature Precipitation Wind Pressure Humidity
    00:00 +17°C° 0 mm 2 mps 749 mmHg 67%
    01:00 +16°C° 0 mm 2 mps 749 mmHg 67%
    02:00 +16°C° 0 mm 2 mps 749 mmHg 66%
    03:00 +16°C° 0 mm 1 mps 749 mmHg 65%
    04:00 +15°C° 0 mm 1 mps 749 mmHg 64%
    05:00 +15°C° 0 mm 1 mps 749 mmHg 63%
    06:00 +19°C° 0 mm 1 mps 749 mmHg 52%
    07:00 +21°C° 0 mm 1 mps 750 mmHg 41%
    08:00 +24°C° 0 mm 1 mps 750 mmHg 30%
    09:00 +26°C° 0 mm 1 mps 750 mmHg 26%
    10:00 +28°C° 0 mm 1 mps 750 mmHg 22%
    11:00 +30°C° 0 mm 1 mps 750 mmHg 18%
    12:00 +30°C° 0 mm 2 mps 749 mmHg 20%
    13:00 +30°C° 0 mm 2 mps 749 mmHg 22%
    14:00 +30°C° 0 mm 3 mps 749 mmHg 24%
    15:00 +28°C° 0 mm 2 mps 749 mmHg 31%
    16:00 +25°C° 0 mm 2 mps 749 mmHg 39%
    17:00 +23°C° 0 mm 1 mps 748 mmHg 46%
    18:00 +22°C° 0 mm 1 mps 749 mmHg 48%
    19:00 +21°C° 0 mm 1 mps 749 mmHg 49%
    20:00 +21°C° 0 mm 1 mps 749 mmHg 50%
    21:00 +20°C° 0 mm 2 mps 749 mmHg 48%
    22:00 +20°C° 0 mm 2 mps 749 mmHg 46%
    23:00 +20°C° 0 mm 2 mps 749 mmHg 43%

    26 November, Tuesday

    Time Temperature Precipitation Wind Pressure Humidity
    00:00 +20°C° 0 mm 2 mps 749 mmHg 41%
    01:00 +20°C° 0 mm 2 mps 749 mmHg 40%
    02:00 +19°C° 0 mm 2 mps 748 mmHg 38%
    03:00 +19°C° 0 mm 2 mps 748 mmHg 37%
    04:00 +19°C° 0 mm 2 mps 748 mmHg 37%
    05:00 +19°C° 0 mm 2 mps 748 mmHg 36%
    06:00 +23°C° 0 mm 2 mps 749 mmHg 31%
    07:00 +26°C° 0 mm 2 mps 749 mmHg 26%
    08:00 +28°C° 0 mm 2 mps 750 mmHg 20%
    09:00 +30°C° 0 mm 3 mps 749 mmHg 18%
    10:00 +33°C° 0 mm 3 mps 749 mmHg 17%
    11:00 +35°C° 0 mm 4 mps 749 mmHg 15%
    12:00 +35°C° 0 mm 5 mps 748 mmHg 16%
    13:00 +35°C° 0 mm 5 mps 748 mmHg 17%
    14:00 +36°C° 0 mm 6 mps 747 mmHg 19%
    15:00 +33°C° 0 mm 6 mps 747 mmHg 23%
    16:00 +30°C° 0 mm 5 mps 747 mmHg 28%
    17:00 +27°C° 0 mm 4 mps 747 mmHg 32%
    18:00 +26°C° 0 mm 3 mps 748 mmHg 32%
    19:00 +25°C° 0 mm 3 mps 748 mmHg 32%
    20:00 +24°C° 0 mm 2 mps 748 mmHg 31%
    21:00 +24°C° 0 mm 2 mps 748 mmHg 30%
    22:00 +24°C° 0 mm 2 mps 748 mmHg 29%
    23:00 +24°C° 0 mm 2 mps 748 mmHg 27%
    Show more